STARLINK-36031

Last updated on Wed Dec 31 2025 00:02:06 GMT+0000 (Coordinated Universal Time)

1 66593U 25270F 25364.60562252 .00068784 00000+0 16397-2 0 9993 2 66593 42.9981 89.5108 0002113 270.1140 89.9474 15.40687453 7109
UTC large
Height (km)
Speed (km/s)
/
Latitude / Longitude
Inclination (degrees)
Orbital Period (minutes)
Azimuth
Elevation
Range (km)
Doppler Factor

Next 0 passes for location: London (51.5072 / 0.1276)

Sorry there are no passes over London.